Total_Precipitation_Accumulation
0.53 0.43 0.49 0.44 0.33 0.44 0.67 0.53 0.36 0.13 0.06 0.06 0.07 0.12 0.14 0.11 0.08 0.05 0.04 0.03 0.02 0.03 0.03 0.04 0.04 0.06 0.08 0.10 0.10 0.12 0.13 0.13 0.14 0.14 0.14 0.14 0.13 0.11 0.09 0.08 0.07 0.07 0.07 0.08
0.59 0.33 0.34 0.33 0.23 0.31 0.39 0.32 0.25 0.14 0.11 0.08 0.12 0.18 0.20 0.15 0.10 0.07 0.05 0.03 0.02 0.03 0.04 0.05 0.05 0.06 0.08 0.11 0.12 0.14 0.16 0.15 0.15 0.15 0.14 0.13 0.11 0.10 0.09 0.09 0.10 0.12 0.13 0.16
0.62 0.33 0.34 0.30 0.20 0.24 0.29 0.22 0.19 0.18 0.13 0.09 0.14 0.20 0.25 0.19 0.12 0.07 0.05 0.04 0.03 0.03 0.03 0.04 0.04 0.08 0.13 0.16 0.15 0.17 0.17 0.15 0.15 0.16 0.16 0.15 0.13 0.15 0.20 0.23 0.25 0.28 0.30 0.32
0.54 0.45 0.48 0.28 0.17 0.17 0.20 0.16 0.13 0.12 0.07 0.08 0.13 0.15 0.16 0.17 0.14 0.09 0.05 0.03 0.02 0.02 0.03 0.03 0.04 0.08 0.15 0.21 0.24 0.27 0.29 0.25 0.21 0.22 0.26 0.31 0.35 0.38 0.44 0.51 0.55 0.57 0.58 0.56
0.38 0.32 0.22 0.12 0.10 0.12 0.15 0.12 0.07 0.06 0.05 0.04 0.06 0.13 0.15 0.13 0.14 0.11 0.06 0.04 0.03 0.03 0.03 0.04 0.05 0.08 0.13 0.22 0.28 0.33 0.37 0.39 0.39 0.41 0.48 0.53 0.60 0.65 0.67 0.72 0.72 0.68 0.65 0.60
0.26 0.19 0.08 0.05 0.03 0.04 0.08 0.10 0.03 0.03 0.03 0.03 0.03 0.08 0.12 0.14 0.18 0.18 0.14 0.08 0.05 0.05 0.06 0.08 0.10 0.14 0.21 0.29 0.38 0.44 0.49 0.54 0.55 0.57 0.60 0.62 0.63 0.63 0.60 0.60 0.58 0.50 0.45 0.39
0.19 0.15 0.02 0.01 0.01 0.01 0.05 0.07 0.02 0.03 0.04 0.03 0.04 0.04 0.05 0.09 0.14 0.17 0.19 0.18 0.16 0.16 0.17 0.19 0.22 0.29 0.38 0.45 0.53 0.58 0.59 0.63 0.64 0.61 0.58 0.54 0.47 0.40 0.36 0.32 0.28 0.25 0.22 0.18
0.07 0.10 0.04 0.02 0.01 0.02 0.02 0.01 0.01 0.02 0.03 0.03 0.03 0.03 0.03 0.04 0.08 0.10 0.13 0.18 0.23 0.26 0.27 0.27 0.32 0.40 0.47 0.52 0.55 0.51 0.46 0.42 0.39 0.34 0.30 0.26 0.22 0.18 0.16 0.13 0.11 0.10 0.08 0.06
0.04 0.05 0.03 0.02 0.02 0.01 0.02 0.02 0.02 0.02 0.02 0.03 0.03 0.04 0.04 0.03 0.04 0.05 0.05 0.06 0.10 0.15 0.18 0.19 0.20 0.23 0.25 0.24 0.22 0.19 0.15 0.13 0.11 0.10 0.10 0.09 0.08 0.07 0.05 0.04 0.03 0.02 0.01 0.01
0.04 0.03 0.02 0.02 0.01 0.02 0.02 0.02 0.02 0.02 0.02 0.02 0.03 0.04 0.04 0.04 0.04 0.05 0.05 0.05 0.04 0.04 0.04 0.04 0.04 0.04 0.04 0.04 0.04 0.03 0.03 0.03 0.03 0.03 0.03 0.02 0.02 0.02 0.01 0.01 0.01 0.01 0.00 0.00
0.06 0.05 0.03 0.03 0.02 0.02 0.02 0.02 0.02 0.03 0.03 0.03 0.03 0.03 0.03 0.03 0.03 0.04 0.04 0.05 0.05 0.05 0.05 0.05 0.04 0.04 0.04 0.04 0.03 0.03 0.03 0.03 0.03 0.03 0.03 0.03 0.02 0.02 0.02 0.02 0.02 0.01 0.01 0.01
0.07 0.04 0.03 0.03 0.02 0.02 0.02 0.01 0.02 0.02 0.02 0.02 0.03 0.03 0.03 0.03 0.03 0.03 0.03 0.03 0.04 0.05 0.06 0.06 0.06 0.05 0.05 0.05 0.04 0.04 0.04 0.04 0.04 0.04 0.04 0.04 0.03 0.03 0.03 0.03 0.03 0.03 0.02 0.01
0.02 0.01 0.01 0.01 0.01 0.01 0.01 0.01 0.02 0.02 0.02 0.03 0.03 0.03 0.02 0.03 0.03 0.03 0.03 0.03 0.03 0.04 0.04 0.05 0.05 0.05 0.06 0.06 0.05 0.05 0.05 0.06 0.06 0.06 0.05 0.05 0.05 0.04 0.04 0.05 0.05 0.04 0.03 0.03
0.01 0.01 0.01 0.01 0.01 0.01 0.01 0.01 0.02 0.03 0.03 0.03 0.02 0.02 0.02 0.02 0.02 0.02 0.03 0.03 0.03 0.03 0.03 0.03 0.03 0.03 0.04 0.05 0.05 0.05 0.05 0.06 0.06 0.06 0.06 0.07 0.07 0.06 0.05 0.05 0.04 0.04 0.04 0.05
0.02 0.02 0.02 0.02 0.01 0.01 0.01 0.01 0.01 0.01 0.01 0.01 0.01 0.02 0.02 0.02 0.02 0.02 0.03 0.03 0.03 0.03 0.03 0.02 0.03 0.03 0.04 0.05 0.05 0.06 0.06 0.06 0.06 0.06 0.07 0.07 0.07 0.07 0.06 0.05 0.05 0.04 0.04 0.05
0.03 0.03 0.03 0.03 0.03 0.02 0.02 0.02 0.02 0.02 0.02 0.02 0.02 0.03 0.03 0.03 0.03 0.03 0.03 0.03 0.03 0.03 0.04 0.04 0.04 0.04 0.04 0.04 0.05 0.06 0.07 0.10 0.10 0.08 0.08 0.08 0.08 0.07 0.07 0.06 0.06 0.05 0.05 0.05
0.07 0.06 0.05 0.05 0.05 0.04 0.04 0.05 0.05 0.05 0.04 0.04 0.03 0.03 0.03 0.03 0.03 0.03 0.03 0.02 0.02 0.03 0.03 0.04 0.04 0.05 0.05 0.05 0.06 0.06 0.07 0.10 0.13 0.10 0.07 0.07 0.08 0.08 0.08 0.08 0.07 0.06 0.05 0.07
0.09 0.09 0.08 0.07 0.07 0.07 0.07 0.07 0.06 0.05 0.05 0.04 0.04 0.03 0.03 0.03 0.03 0.03 0.03 0.02 0.03 0.03 0.03 0.04 0.04 0.05 0.05 0.05 0.06 0.06 0.07 0.08 0.09 0.09 0.09 0.09 0.11 0.10 0.10 0.09 0.07 0.07 0.06 0.08
0.09 0.10 0.10 0.09 0.08 0.09 0.09 0.09 0.07 0.06 0.05 0.05 0.05 0.05 0.04 0.04 0.03 0.03 0.03 0.04 0.04 0.04 0.04 0.04 0.06 0.06 0.05 0.06 0.08 0.07 0.07 0.09 0.09 0.10 0.10 0.12 0.12 0.10 0.08 0.08 0.07 0.07 0.07 0.07
0.10 0.11 0.12 0.11 0.10 0.09 0.10 0.10 0.09 0.08 0.07 0.07 0.07 0.06 0.06 0.05 0.05 0.05 0.05 0.05 0.05 0.05 0.05 0.05 0.05 0.05 0.05 0.06 0.08 0.07 0.06 0.07 0.08 0.09 0.10 0.11 0.11 0.10 0.09 0.08 0.08 0.08 0.08 0.08
0.13 0.12 0.13 0.14 0.14 0.13 0.12 0.12 0.11 0.11 0.10 0.09 0.09 0.09 0.08 0.07 0.06 0.05 0.05 0.06 0.06 0.05 0.05 0.06 0.05 0.05 0.05 0.06 0.08 0.07 0.07 0.08 0.09 0.10 0.11 0.11 0.12 0.11 0.11 0.10 0.10 0.09 0.09 0.08
0.11 0.12 0.13 0.13 0.13 0.13 0.13 0.13 0.13 0.13 0.12 0.12 0.12 0.11 0.10 0.09 0.08 0.07 0.07 0.07 0.06 0.07 0.07 0.06 0.05 0.06 0.07 0.08 0.08 0.08 0.09 0.10 0.11 0.12 0.13 0.13 0.12 0.11 0.10 0.10 0.10 0.09 0.09 0.08
0.09 0.10 0.12 0.13 0.13 0.12 0.13 0.14 0.14 0.14 0.13 0.14 0.14 0.14 0.13 0.11 0.10 0.09 0.09 0.09 0.07 0.07 0.07 0.07 0.08 0.10 0.10 0.10 0.10 0.10 0.11 0.12 0.12 0.12 0.12 0.11 0.11 0.10 0.10 0.09 0.08 0.08 0.08 0.07
0.06 0.06 0.07 0.08 0.08 0.09 0.10 0.10 0.11 0.12 0.13 0.14 0.14 0.13 0.13 0.12 0.11 0.09 0.09 0.09 0.09 0.08 0.08 0.09 0.11 0.12 0.12 0.11 0.11 0.12 0.12 0.12 0.12 0.11 0.10 0.10 0.09 0.08 0.08 0.08 0.08 0.07 0.07 0.06
0.04 0.03 0.03 0.04 0.05 0.05 0.06 0.07 0.08 0.09 0.10 0.12 0.12 0.10 0.10 0.10 0.10 0.10 0.10 0.09 0.08 0.09 0.09 0.10 0.11 0.11 0.12 0.11 0.11 0.11 0.11 0.10 0.10 0.10 0.09 0.08 0.07 0.07 0.06 0.06 0.06 0.06 0.06 0.05
0.02 0.02 0.02 0.02 0.02 0.02 0.03 0.04 0.05 0.07 0.08 0.08 0.09 0.09 0.09 0.09 0.09 0.09 0.09 0.09 0.09 0.10 0.10 0.10 0.10 0.10 0.11 0.10 0.10 0.09 0.08 0.08 0.08 0.07 0.06 0.06 0.06 0.06 0.05 0.05 0.05 0.05 0.05 0.05
0.01 0.01 0.01 0.01 0.01 0.02 0.02 0.02 0.03 0.04 0.05 0.07 0.08 0.09 0.10 0.10 0.10 0.09 0.09 0.09 0.09 0.10 0.09 0.09 0.09 0.09 0.09 0.09 0.08 0.07 0.06 0.06 0.06 0.06 0.05 0.05 0.05 0.05 0.05 0.05 0.05 0.05 0.05 0.05